Location: Poughquag
(41.6090°N, 73.6820°W)
Time: 03:34:32
(UTC-04:00)

Transit 4A - Pass Details

Date: 02 June 2020
Orbit: 866 x 978 km, 66.8° (Epoch: 06 July)

Event Time Altitude Azimuth Distance (km) Brightness Sun altitude
Rises 01:48:13 0° 206° (SSW) 3,434 - -24.9°
Reaches altitude 10° 01:50:39 10° 206° (SSW) 2,502 - -24.7°
Exits shadow 01:55:23 62° 198° (SSW) 980 7.7 -24.5°
Maximum altitude 01:56:26 85° 120° (ESE) 883 7.7 -24.5°
Drops below altitude 10° 02:02:21 10° 31° (NNE) 2,558 11.2 -24.1°
Sets 02:04:53 0° 31° (NNE) 3,516 12.2 -24.0°
